Weather in Saguenay

Canada     48°15′56″N   71°10′36″W
temp.,
°C
wind,
m/s
gust,
m/s
humid.,
%
clouds,
%
prec.,
mm/h
press.,
hPa
HPBL,
m
6 may, thu
thu623:00+5ene1199100 2.5 1005110
02:00+4wnw4798100 5.9 1005621
05:00+2wnw51197100 3.9 1007769
08:00+1wnw51397100 5.9 1009622
11:00+2wnw6993100 0.6 1010852
14:00+3wnw6982100 0.8 10111073
17:00+4wnw597499 0.1 10131182
20:00+2wnw487396 0.1 1014803
7 may, fri
fri723:00−1sw23883 0.0 101550
02:00−2sw23885 0.0 101554
05:00−2sw22915 0.0 101642
08:00+3wnw35665 0.0 1017709
11:00+7nw34445 0.0 10161417
14:00+10nnw23365 0.0 10141895
17:00+11nw11344 0.0 10141955
20:00+5sse21555 0.0 101510
8 may, sat
sat823:00+2se22725 0.0 101621
02:000se23815 0.0 101639
05:000se22825 0.0 101515
08:00+6e466422 0.0 1016479
11:00+9ene4554100 0.0 10141131
14:00+10ene4549100 0.0 10121373
17:00+10e4548100 0.0 10111481
20:00+5e3774100 0.0 1012315
9 may, sun
sun923:00+2se1186100 0.0 101210
02:00+2wsw1191100 0.0 101212
05:00+1wsw2292100 0.0 101228
08:00+5nw1371100 0.0 1012423
11:00+9nnw2351100 0.0 10111554
14:00+11nw3445100 0.1 10091710
17:00+12nw354170 0.0 10081675
20:00+7wnw487346 0.0 1010415
10 may, mon
mon1023:00+5wnw259184 0.2 1011444
02:00+5w1490100 0.3 1010300
05:00+2sw119474 0.1 100912
08:00+6nw1167100 0.1 1008682
11:00+9nne1151100 0.0 10071484
14:00+11n2243100 0.1 10051909
17:00+11nnw3243100 0.0 10051769
20:00+6nw227721 0.0 100618